This demonstration page uses our WeatherBlox Daily Observations layout. Learn more.

Left ArrowRight Arrow

41.55636, -103.73856

Hourly Observations for July 26, 2020

Temp ( °F °C ) Dew Point ( °F °C ) Humidity (%) Winds ( mph kmh ) Pressure ( in mb ) Visibility ( mi km ) Precip ( " mm )
6:58 pm 18:58 Clear 85 29.5 36 2.3 17 17 NNW 7 11 29.86 1011 10 16 0.00 0.00
7:58 pm 19:58 Mostly Cloudy 83 28.2 36 2.2 19 19 N 5 7 29.85 1011 10 16 0.00 0.00
8:58 pm 20:58 Cloudy 81 27.2 39 4.1 23 23 E 7 11 29.87 1012 10 16 0.00 0.00
9:58 pm 21:58 Mostly Cloudy 76 24.7 42 5.4 29 29 SW 6 9 29.89 1012 10 16 0.00 0.00
10:58 pm 22:58 Mostly Cloudy 74 23.5 43 5.9 32 32 SSW 5 7 29.91 1013 10 16 0.00 0.00
11:58 pm 23:58 Mostly Clear 72 22 42 5.3 34 34 Calm 29.91 1013 10 16 0.00 0.00
12:58 am 00:58 Mostly Cloudy 73 22.6 41 4.9 32 32 Calm 29.93 1014 10 16 0.00 0.00
1:58 am 01:58 Mostly Cloudy 71 21.4 42 5.6 36 36 SW 5 7 29.95 1014 10 16 0.00 0.00
2:58 am 02:58 Mostly Cloudy 70 21 42 5.7 37 37 SW 5 7 29.95 1014 10 16 0.00 0.00
3:58 am 03:58 Mostly Cloudy 69 20.3 45 7.2 43 43 N 7 11 29.96 1015 10 16 0.00 0.00
4:58 am 04:58 Mostly Cloudy 66 18.9 46 7.7 48 48 SW 5 7 29.97 1015 10 16 0.00 0.00
5:58 am 05:58 Mostly Cloudy 67 19.2 48 9 52 52 Calm 30.00 1016 10 16 0.00 0.00
6:58 am 06:58 Mostly Cloudy 66 18.8 57 13.7 72 72 NNE 10 17 30.02 1017 10 16 0.00 0.00
7:58 am 07:58 Mostly Cloudy 66 19 57 14.1 73 73 N 9 15 30.05 1018 10 16 0.00 0.00
8:58 am 08:58 Mostly Cloudy 67 19.2 58 14.7 75 75 NE 13 20 30.07 1018 10 16 0.00 0.00
9:58 am 09:58 Mostly Cloudy 70 21.1 59 15.2 69 69 NE 14 22 30.09 1019 10 16 0.00 0.00
10:58 am 10:58 Cloudy 69 20.4 60 15.3 73 73 NE 18 30 30.11 1020 10 16 0.00 0.00
11:58 am 11:58 Cloudy 66 18.8 60 15.5 81 81 NE 13 20 30.15 1021 10 16 0.00 0.00
12:58 pm 12:58 Cloudy with Light Rain 65 18.5 61 16.2 87 87 E 8 13 30.15 1021 10 16 0.00 0.00
1:58 pm 13:58 Mostly Cloudy 67 19.7 62 16.4 81 81 E 9 15 30.14 1021 10 16 0.00 0.00
2:58 pm 14:58 Mostly Cloudy 71 21.8 62 16.7 73 73 E 12 19 30.13 1020 10 16 0.00 0.00
3:58 pm 15:58 Mostly Cloudy 76 24.3 59 15.1 57 57 ENE 9 15 30.11 1020 10 16 0.00 0.00
4:58 pm 16:58 Mostly Sunny 77 24.8 57 14.1 51 51 Calm 30.09 1019 10 16 0.00 0.00
5:58 pm 17:58 Mostly Sunny 77 25.2 57 13.9 50 50 E 8 13 30.08 1019 10 16 0.00 0.00

Powered by AerisWeather